College Station, TX

10:44 AM CDT on June 27, 2017 (GMT -0500)
Easterwood

Weather History for KCLL - September, 2013

Change the Weather History Date:

Friday, September 20, 2013

  Actual Average Record
Temperature  
Mean Temperature 75 °F 79 °F  
Max Temperature 78 °F 89 °F 102 °F (1937)
Min Temperature 71 °F 68 °F 54 °F (1938)
Degree Days  
Heating Degree Days 0 0  
Month to date heating degree days 0 0  
Since 1 July heating degree days 0 0  
Cooling Degree Days 10 14  
Month to date cooling degree days 412 329  
Year to date cooling degree days 2889 2675  
Growing Degree Days 25 (Base 50)    
Moisture  
Dew Point 74 °F    
Average Humidity 96    
Maximum Humidity 100    
Minimum Humidity 91    
Precipitation  
Precipitation 2.97 in 0.09 in 4.63 in (1958)
Month to date precipitation 3.18 2.15  
Year to date precipitation 22.91 27.67  
Sea Level Pressure  
Sea Level Pressure 29.81 in    
Wind  
Wind Speed 8 mph (SE)    
Max Wind Speed 21 mph    
Max Gust Speed 24 mph    
Visibility 7 miles    
Events Fog , Rain , Thunderstorm    
T = Trace of Precipitation, MM = Missing Value Source: NWS Daily Summary

Daily Weather History Graph

Daily Weather History Graph

Search for Another Location

Airport or City:

Trip Planner

Search our weather history database for the weather conditions in past years. The results will help you decide how hot, cold, wet, or windy it might be!

Date:

Astronomy

Sep. 20, 2013 Rise Set
Actual Time 7:12 AM CDT 7:24 PM CDT
Civil Twilight 6:48 AM CDT 7:48 PM CDT
Nautical Twilight 6:20 AM CDT 8:16 PM CDT
Astronomical Twilight 5:52 AM CDT 8:44 PM CDT
Moon 8:08 PM CDT (9/20) 8:20 AM CDT (9/20)
Length of Visible Light 12h 59m
Length of Day
12h 11m
Full, 98% of the Moon is Illuminated
Sep 20
Full
Sep 26
Last Quarter
Oct 4
New
Oct 11
First Quarter
Oct 18
Full

Hourly Weather History & Observations

Time (CDT) Temp. Dew Point Humidity Pressure Visibility Wind Dir Wind Speed Gust Speed Precip Events Conditions
12:09 AM 78.8 °F 75.2 °F 89% 29.90 in 10.0 mi SE 9.2 mph - N/A   Mostly Cloudy
12:53 AM 79.0 °F 75.0 °F 88% 29.88 in 10.0 mi SE 8.1 mph - N/A   Overcast
1:53 AM 78.1 °F 75.0 °F 90% 29.87 in 10.0 mi SE 6.9 mph - N/A   Scattered Clouds
2:53 AM 78.1 °F 75.9 °F 93% 29.86 in 10.0 mi ESE 4.6 mph - N/A   Overcast
3:53 AM 77.0 °F 75.0 °F 94% 29.84 in 5.0 mi ESE 4.6 mph - 0.06 in Rain Light Rain
3:59 AM 77.0 °F 75.2 °F 94% 29.85 in 2.0 mi ESE 4.6 mph - 0.08 in Rain Heavy Rain
4:07 AM 77.0 °F 75.2 °F 94% 29.85 in 1.5 mi East 8.1 mph - 0.24 in Rain Heavy Rain
4:12 AM 77.0 °F 75.2 °F 94% 29.85 in 2.5 mi ESE 6.9 mph - 0.24 in Rain Light Rain
4:14 AM 77.0 °F 75.2 °F 94% 29.85 in 3.0 mi ESE 5.8 mph - 0.24 in Rain Light Rain
4:29 AM 77.0 °F 75.2 °F 94% 29.84 in 8.0 mi ESE 6.9 mph - 0.26 in Rain Light Rain
4:53 AM 75.9 °F 75.0 °F 97% 29.82 in 10.0 mi SE 8.1 mph - 0.26 in Rain Light Rain
5:01 AM 75.2 °F 75.2 °F 100% 29.83 in 6.0 mi SE 8.1 mph - 0.00 in Rain Light Rain
5:13 AM 75.2 °F 75.2 °F 100% 29.83 in 10.0 mi SE 8.1 mph - 0.01 in Rain Light Rain
5:49 AM 75.2 °F 75.2 °F 100% 29.84 in 9.0 mi SE 4.6 mph - 0.06 in Rain Light Rain
5:51 AM 75.2 °F 75.2 °F 100% 29.84 in 8.0 mi SE 6.9 mph - 0.06 in Rain Light Rain
5:53 AM 75.9 °F 75.0 °F 97% 29.82 in 8.0 mi SE 6.9 mph - 0.07 in Rain Light Rain
6:05 AM 75.2 °F 75.2 °F 100% 29.84 in 8.0 mi SE 6.9 mph - 0.01 in Rain Light Rain
6:33 AM 75.2 °F 75.2 °F 100% 29.83 in 10.0 mi SE 6.9 mph - 0.02 in   Overcast
6:53 AM 75.9 °F 75.9 °F 100% 29.81 in 6.0 mi SSE 9.2 mph - 0.03 in Rain Light Rain
7:36 AM 75.2 °F 75.2 °F 100% 29.83 in 10.0 mi SSE 5.8 mph - 0.03 in   Overcast
7:53 AM 75.9 °F 75.9 °F 100% 29.82 in 10.0 mi SSE 6.9 mph - 0.03 in   Overcast
8:29 AM 75.2 °F 75.2 °F 100% 29.83 in 10.0 mi South 11.5 mph - 0.01 in   Mostly Cloudy
8:53 AM 75.9 °F 75.9 °F 100% 29.82 in 10.0 mi South 9.2 mph - 0.01 in   Overcast
9:50 AM 75.2 °F 75.2 °F 100% 29.84 in 1.8 mi South 4.6 mph - 0.05 in Rain Heavy Rain
9:53 AM 75.9 °F 75.9 °F 100% 29.84 in 1.2 mi SW 5.8 mph - 0.12 in Rain Rain
9:59 AM 75.2 °F 75.2 °F 100% 29.85 in 1.0 mi Calm Calm - 0.05 in Rain Heavy Rain
10:08 AM 75.2 °F 75.2 °F 100% 29.85 in 2.0 mi SSW 3.5 mph - 0.08 in Rain Rain
10:34 AM 75.2 °F 75.2 °F 100% 29.85 in 4.0 mi Calm Calm - 0.19 in Rain Rain
10:53 AM 75.0 °F 75.0 °F 100% 29.84 in 3.0 mi SSW 3.5 mph - 0.25 in Rain , Thunderstorm Heavy Rain
11:01 AM 75.2 °F 75.2 °F 100% 29.84 in 2.0 mi SSW 5.8 mph - 0.06 in Rain , Thunderstorm Heavy Rain
11:06 AM 75.2 °F 75.2 °F 100% 29.84 in 2.0 mi South 5.8 mph - 0.08 in Rain Heavy Rain
11:16 AM 75.2 °F 75.2 °F 100% 29.83 in 7.0 mi SSE 8.1 mph - 0.10 in Rain Light Rain
11:23 AM 75.2 °F 75.2 °F 100% 29.83 in 8.0 mi SSE 8.1 mph - 0.10 in Rain Light Rain
11:34 AM 75.2 °F 75.2 °F 100% 29.83 in 5.0 mi SSE 9.2 mph - 0.12 in Rain , Thunderstorm Rain
11:49 AM 75.2 °F 75.2 °F 100% 29.84 in 10.0 mi SSE 8.1 mph - 0.12 in Rain Light Rain
11:53 AM 75.9 °F 75.9 °F 100% 29.82 in 10.0 mi SSE 9.2 mph - 0.12 in Rain Light Rain
12:02 PM 75.2 °F 75.2 °F 100% 29.83 in 4.0 mi South 5.8 mph - 0.03 in Rain Light Rain
12:22 PM 77.0 °F 77.0 °F 100% 29.82 in 10.0 mi SSE 5.8 mph - 0.03 in   Overcast
12:31 PM 77.0 °F 77.0 °F 100% 29.81 in 10.0 mi SSE 8.1 mph - 0.03 in   Overcast
12:43 PM 78.8 °F 78.8 °F 100% 29.81 in 10.0 mi South 9.2 mph - 0.03 in   Overcast
12:51 PM 78.8 °F 77.0 °F 94% 29.81 in 10.0 mi South 10.4 mph - 0.03 in   Mostly Cloudy
12:53 PM 78.1 °F 77.0 °F 96% 29.79 in 10.0 mi South 8.1 mph - 0.03 in   Mostly Cloudy
1:01 PM 78.8 °F 77.0 °F 94% 29.81 in 8.0 mi South 9.2 mph - 0.01 in   Overcast
1:07 PM 78.8 °F 77.0 °F 94% 29.80 in 2.5 mi South 11.5 mph - 0.05 in Rain Heavy Rain
1:15 PM 77.0 °F 75.2 °F 94% 29.80 in 1.2 mi South 13.8 mph - 0.13 in Rain Heavy Rain
1:27 PM 75.2 °F 75.2 °F 100% 29.79 in 0.5 mi SSW 6.9 mph - 0.48 in Fog , Rain Heavy Rain
1:38 PM 75.2 °F 75.2 °F 100% 29.79 in 1.2 mi SW 10.4 mph - 0.58 in Rain , Thunderstorm Heavy Thunderstorms and Rain
1:45 PM 75.2 °F 75.2 °F 100% 29.79 in 4.0 mi SSW 6.9 mph - 0.58 in Rain , Thunderstorm Light Thunderstorms and Rain
1:53 PM 77.0 °F 77.0 °F 100% 29.77 in 10.0 mi South 5.8 mph - 0.58 in Rain Light Rain
2:04 PM 77.0 °F 77.0 °F 100% 29.78 in 9.0 mi South 6.9 mph - 0.01 in Rain Light Rain
2:14 PM 77.0 °F 77.0 °F 100% 29.77 in 10.0 mi South 8.1 mph - 0.01 in Rain Light Rain
2:53 PM 77.0 °F 77.0 °F 100% 29.77 in 10.0 mi WSW 6.9 mph - 0.02 in Rain Light Rain
3:13 PM 77.0 °F 77.0 °F 100% 29.77 in 8.0 mi West 6.9 mph - 0.02 in Rain Light Rain
3:33 PM 75.2 °F 73.4 °F 94% 29.77 in 2.0 mi NNW 9.2 mph - 0.09 in Rain Heavy Rain
3:46 PM 73.4 °F 73.4 °F 100% 29.78 in 0.8 mi North 12.7 mph - 0.36 in Rain Heavy Rain
3:53 PM 72.0 °F 72.0 °F 100% 29.77 in 0.8 mi North 9.2 mph - 0.48 in Rain , Thunderstorm Heavy Rain
4:00 PM 71.6 °F 71.6 °F 100% 29.79 in 2.0 mi North 6.9 mph - 0.01 in Rain , Thunderstorm Rain
4:12 PM 71.6 °F 71.6 °F 100% 29.79 in 0.8 mi North 9.2 mph - 0.21 in Rain , Thunderstorm Heavy Thunderstorms and Rain
4:26 PM 71.6 °F 71.6 °F 100% 29.78 in 2.0 mi NNE 4.6 mph - 0.34 in Rain , Thunderstorm Rain
4:30 PM 71.6 °F 71.6 °F 100% 29.77 in 4.0 mi NNE 9.2 mph - 0.35 in Rain Rain
4:34 PM 71.6 °F 71.6 °F 100% 29.77 in 4.0 mi NNE 9.2 mph - 0.37 in Rain Heavy Rain
4:53 PM 72.0 °F 72.0 °F 100% 29.76 in 10.0 mi NNE 8.1 mph - 0.39 in Rain Light Rain
5:40 PM 71.6 °F 71.6 °F 100% 29.78 in 10.0 mi North 10.4 mph - 0.04 in Rain Light Rain
5:53 PM 72.0 °F 72.0 °F 100% 29.77 in 4.0 mi NNE 9.2 mph - 0.07 in Rain Rain
6:01 PM 71.6 °F 71.6 °F 100% 29.79 in 8.0 mi North 10.4 mph - 0.02 in Rain Light Rain
6:05 PM 71.6 °F 71.6 °F 100% 29.79 in 1.5 mi North 10.4 mph - 0.10 in Rain Heavy Rain
6:21 PM 71.6 °F 71.6 °F 100% 29.79 in 1.2 mi NNE 10.4 mph - 0.29 in Rain Heavy Rain
6:33 PM 71.6 °F 71.6 °F 100% 29.79 in 3.0 mi NE 8.1 mph - 0.35 in Rain Heavy Rain
6:53 PM 71.1 °F 71.1 °F 100% 29.79 in 6.0 mi NNE 6.9 mph - 0.38 in Rain Rain
7:08 PM 71.6 °F 71.6 °F 100% 29.80 in 10.0 mi North 6.9 mph - 0.01 in Rain Light Rain
7:13 PM 71.6 °F 71.6 °F 100% 29.80 in 10.0 mi North 8.1 mph - 0.01 in Rain Light Rain
7:45 PM 71.6 °F 71.6 °F 100% 29.80 in 9.0 mi North 10.4 mph - 0.06 in Rain Rain
7:53 PM 71.1 °F 71.1 °F 100% 29.79 in 10.0 mi North 15.0 mph 23.0 mph 0.07 in Rain Light Rain
8:12 PM 71.6 °F 71.6 °F 100% 29.80 in 10.0 mi North 11.5 mph - 0.00 in Rain Light Rain
8:53 PM 71.1 °F 71.1 °F 100% 29.78 in 10.0 mi NNE 12.7 mph - 0.00 in   Mostly Cloudy
9:53 PM 71.1 °F 71.1 °F 100% 29.82 in 10.0 mi NE 6.9 mph - N/A   Overcast
10:53 PM 71.1 °F 70.0 °F 96% 29.81 in 10.0 mi NNE 11.5 mph - 0.00 in Rain Light Rain
11:07 PM 71.6 °F 69.8 °F 94% 29.82 in 10.0 mi North 12.7 mph - 0.00 in Rain Light Rain
11:18 PM 71.6 °F 69.8 °F 94% 29.83 in 10.0 mi North 11.5 mph - 0.00 in   Overcast
11:45 PM 71.6 °F 71.6 °F 100% 29.83 in 10.0 mi North 9.2 mph - 0.00 in   Mostly Cloudy
11:53 PM 72.0 °F 71.1 °F 97% 29.81 in 10.0 mi North 10.4 mph - 0.00 in   Mostly Cloudy